Cloud_Cover
88 80 80 92 92 92 92 92 92 92 92 92 92 92 92 92 92 92 92 92 92 92 92 92 92 92 92 92 92 92 92 92 92 88 68 68 68 64 64 64 80 92 88 80 68 56 48 48 48 48 48 44 56 68 64 80 80 76 92 92 92 92 92 92 92 92 92 92 92 92 92 88 88 92 92 92 92 88 80 80 68 56 48 20 8 0
92 92 92 92 92 92 100 100 100 92 92 92 92 100 100 92 92 92 92 92 92 92 92 92 92 92 92 92 92 92 92 92 92 92 76 76 68 56 44 56 76 92 92 92 80 64 56 48 48 56 64 68 76 76 68 68 76 80 88 92 92 92 92 92 92 92 92 92 92 88 80 64 64 68 68 76 80 76 64 64 44 20 12 8 0 0
92 92 92 92 92 92 100 92 92 92 92 92 92 100 100 92 92 92 92 92 92 92 92 92 92 92 92 92 92 92 92 92 92 92 88 88 76 56 44 76 92 92 92 92 88 76 68 56 48 48 44 76 88 80 80 80 80 80 76 88 92 92 92 92 88 80 92 92 88 76 56 48 48 48 32 44 48 48 24 32 12 0 0 0 0 0
92 92 92 92 92 92 92 92 92 92 92 92 100 92 92 92 92 92 92 92 92 92 92 92 92 100 100 92 92 92 92 92 92 92 88 92 88 80 56 80 92 92 92 92 88 76 68 64 48 44 32 64 80 80 76 76 76 76 76 88 92 92 76 88 88 80 92 92 88 76 64 44 36 32 12 12 12 12 0 0 0 0 8 0 0 0
92 92 92 92 92 92 92 92 92 92 92 92 92 92 92 92 92 92 92 92 92 92 92 92 92 92 100 92 92 92 92 92 92 92 92 92 92 88 76 92 92 92 92 92 88 80 68 64 56 48 44 68 76 68 68 68 68 64 64 80 92 88 80 88 92 92 88 88 64 36 32 24 20 20 12 0 0 0 0 0 0 0 8 8 0 0
92 92 92 92 92 92 92 92 92 92 92 92 92 92 92 92 92 92 92 92 92 92 92 92 92 92 92 92 92 92 92 92 92 92 92 92 92 92 92 92 92 92 92 92 88 80 80 68 64 56 48 68 68 68 64 64 64 64 56 76 80 88 92 92 92 92 80 80 68 48 32 20 12 8 0 0 0 0 0 0 0 0 8 8 0 0
92 92 92 92 92 92 92 92 92 92 92 92 92 92 92 92 92 92 92 92 92 92 92 92 92 92 92 92 92 92 92 92 92 92 92 92 92 92 92 92 92 92 92 92 88 80 80 64 48 44 36 56 64 64 56 56 64 64 64 64 76 88 92 92 92 92 80 80 80 68 36 12 8 0 0 0 0 0 0 0 0 0 8 0 0 0
92 92 92 92 92 92 92 92 92 92 92 92 92 92 92 92 92 92 92 92 92 92 92 92 92 92 92 92 92 92 92 92 92 92 92 92 92 92 92 92 92 92 92 92 88 88 80 68 64 48 44 48 56 56 48 48 48 56 64 68 76 88 92 88 92 92 92 92 88 76 44 12 0 0 0 0 0 0 0 0 0 0 0 0 0 0
92 92 88 92 92 92 92 92 92 92 92 92 92 92 92 92 92 92 92 92 92 92 92 92 92 92 92 92 92 92 92 92 92 92 92 92 92 92 92 92 92 92 92 92 92 88 80 76 68 56 48 48 48 48 44 44 44 48 64 64 76 80 92 92 92 92 92 92 88 68 44 12 0 0 0 0 0 0 0 0 0 8 0 0 0 0
92 92 92 92 92 92 92 92 92 92 92 92 92 92 92 92 92 92 92 92 92 92 92 92 92 92 92 92 92 92 92 92 92 92 92 92 92 92 92 92 92 92 92 92 92 88 80 76 68 64 56 56 56 48 48 44 44 48 56 56 64 64 68 88 92 92 88 80 64 48 36 12 0 0 0 0 0 0 0 0 0 0 0 8 0 0
92 92 92 92 92 92 92 92 92 92 92 92 92 92 92 92 92 92 92 92 92 92 92 92 92 92 92 92 92 92 92 92 92 92 92 92 92 92 92 92 92 92 92 92 92 92 88 80 76 68 64 64 56 56 48 48 48 48 48 48 48 48 56 76 88 92 88 76 68 56 32 20 8 0 0 0 0 0 0 0 0 0 0 8 0 0
92 92 88 88 88 92 92 92 92 92 92 92 92 92 92 92 92 92 92 92 92 92 92 92 92 92 92 92 92 92 92 92 92 92 92 92 92 92 92 92 92 92 92 92 92 92 88 80 76 64 64 64 64 64 56 48 48 48 48 48 56 64 68 64 76 80 80 76 68 56 32 20 8 0 0 0 0 0 0 0 0 0 8 8 0 0
92 92 88 88 88 92 92 92 92 92 92 92 92 92 92 92 92 92 92 92 92 92 92 92 92 92 92 92 92 92 92 92 92 92 92 92 92 92 92 92 92 92 92 92 92 92 88 80 68 64 64 64 64 64 56 56 48 48 48 44 44 44 36 48 48 48 48 68 64 44 20 8 0 0 0 0 0 0 0 0 0 0 8 8 0 0
92 92 92 92 88 88 92 88 92 92 92 92 92 92 92 92 92 92 92 92 92 92 92 92 92 92 92 92 92 92 92 92 92 92 92 92 92 92 92 92 92 92 92 92 92 92 92 88 76 68 64 56 56 56 56 48 48 48 44 36 36 32 20 24 24 24 12 36 44 32 20 12 8 8 8 8 8 8 8 0 0 0 8 8 0 0
92 88 92 92 92 92 92 88 88 88 92 92 92 100 100 92 92 92 92 92 92 92 92 92 92 92 92 92 92 92 92 92 92 92 92 92 92 92 92 92 88 88 92 92 92 92 92 88 76 64 56 56 56 56 48 48 44 44 44 36 36 32 20 12 12 12 12 20 20 20 20 20 12 8 8 8 8 8 8 0 0 0 8 0 0 0
80 80 76 76 76 80 92 88 88 92 92 92 92 92 100 92 92 92 92 92 92 92 92 92 92 92 92 92 92 92 92 92 92 92 92 92 92 92 92 92 92 88 88 88 88 88 92 88 80 68 56 64 56 56 48 48 44 36 36 32 32 24 20 12 8 12 12 12 12 20 12 12 8 8 8 8 8 8 8 0 8 8 0 0 0 0
88 92 92 92 88 80 88 88 88 92 92 92 92 92 92 92 92 92 92 92 92 92 92 92 92 92 92 92 92 92 92 92 92 92 92 92 92 92 92 92 92 88 80 80 88 92 92 92 92 88 80 80 76 68 64 48 44 44 36 32 24 20 12 8 8 12 12 12 20 12 12 8 8 8 8 8 8 8 8 8 8 8 0 0 0 0
92 92 92 92 92 92 92 92 92 92 92 88 88 92 92 92 92 92 92 92 92 92 92 92 92 92 92 92 92 92 92 92 92 92 92 92 92 92 92 92 92 80 76 80 92 92 92 92 92 92 88 80 76 68 64 48 44 44 44 36 32 24 20 12 12 12 20 20 20 12 8 8 8 8 8 8 8 8 0 8 8 8 0 0 0 0
92 92 92 92 92 92 92 92 92 88 88 92 92 92 92 92 92 92 92 92 92 92 92 92 92 92 92 92 92 92 92 92 92 92 92 92 92 92 92 92 92 92 92 88 88 92 92 92 92 92 88 80 68 64 56 48 44 44 44 36 24 20 20 12 12 20 24 24 24 20 12 12 12 12 12 8 8 8 8 8 8 8 0 0 0 0
88 80 88 92 92 92 92 92 92 92 92 92 92 92 92 92 92 92 92 92 92 92 92 92 92 92 92 92 92 92 92 92 92 92 92 92 92 92 92 92 92 92 88 88 88 92 92 92 92 92 92 88 80 68 64 56 48 48 44 36 32 24 24 20 20 24 24 24 24 20 12 12 12 12 12 8 8 8 8 8 0 0 0 8 0 12
88 88 88 92 92 92 92 92 92 92 92 92 92 92 100 92 92 92 92 92 92 92 92 92 92 92 92 92 92 92 92 92 92 92 92 92 92 92 92 92 88 88 88 92 92 92 92 92 92 92 92 88 76 68 64 56 56 48 56 48 44 36 32 24 24 24 24 24 24 20 12 12 12 12 8 8 8 8 8 8 8 8 8 8 20 44
92 92 92 92 92 92 92 92 92 92 92 92 92 92 92 92 100 92 92 92 92 92 92 92 92 92 92 92 92 92 92 92 92 92 92 92 92 92 92 92 92 88 88 92 92 92 92 92 92 92 92 80 76 68 64 56 56 48 56 48 44 36 32 32 24 24 24 20 20 20 20 12 12 8 8 8 8 8 8 8 8 8 8 20 36 64
92 92 92 92 92 92 92 92 92 92 92 92 92 92 92 92 92 92 92 92 92 92 92 92 92 92 92 92 92 92 92 92 92 92 92 92 92 92 92 92 92 92 88 92 92 92 92 92 92 92 92 88 80 76 68 64 64 56 56 56 48 44 36 32 32 24 24 20 20 20 20 20 12 12 8 8 8 8 8 8 8 8 8 68 92 92
92 92 92 92 92 92 92 92 92 92 92 92 92 92 92 92 92 92 92 92 92 92 92 92 92 92 92 92 92 92 92 92 92 92 92 92 92 92 92 92 92 92 92 92 92 92 92 92 92 92 92 88 80 76 76 68 68 68 64 64 56 48 44 36 32 32 24 24 24 24 32 24 24 20 12 12 12 8 8 8 8 8 8 68 92 92
92 92 92 92 92 92 92 92 92 92 92 92 92 92 92 92 92 92 92 92 92 92 92 92 92 92 92 92 92 92 92 92 92 92 92 92 92 92 92 92 92 92 92 92 92 92 92 92 92 92 92 92 88 80 76 76 68 68 64 64 56 48 44 36 36 32 24 32 32 32 36 36 32 32 24 20 12 8 8 8 8 8 12 76 92 92
92 92 92 92 92 92 92 92 92 92 92 92 92 92 92 92 92 92 92 92 92 92 92 92 92 92 92 92 92 92 92 92 92 92 92 92 92 92 92 92 92 92 92 92 92 92 92 92 92 92 92 92 92 88 80 76 68 68 68 64 56 48 44 44 36 32 24 32 36 44 48 48 48 48 56 32 12 8 8 8 8 12 24 68 88 92
92 92 92 92 92 92 100 92 92 92 92 92 92 92 92 92 92 92 92 92 92 92 100 100 92 92 92 92 92 92 92 92 92 92 92 92 92 92 92 92 92 92 92 92 92 92 92 92 92 92 92 92 88 80 88 76 68 68 80 68 56 48 44 36 32 24 24 44 48 56 64 68 68 68 68 44 20 8 8 8 12 20 36 56 76 88
92 92 92 92 92 92 92 92 92 92 92 92 92 92 92 92 92 92 92 92 92 92 100 92 92 92 92 92 92 92 92 92 92 92 92 92 92 92 92 92 92 92 92 92 92 92 92 92 92 92 92 92 88 88 88 80 76 76 88 68 56 48 44 36 32 24 24 44 56 68 92 88 88 88 88 64 36 12 8 8 12 24 44 36 48 64
92 92 92 92 92 92 92 92 92 92 92 92 92 92 92 92 92 92 92 92 92 92 92 92 92 92 92 92 92 92 92 92 92 92 92 92 92 92 92 92 92 92 92 92 92 92 92 92 92 92 92 92 92 88 88 80 76 76 88 76 68 56 44 36 32 24 32 44 64 76 80 88 88 88 88 88 64 24 8 0 0 0 12 24 32 32
92 92 92 92 92 92 92 92 92 92 92 92 92 92 92 92 92 92 92 92 92 92 92 92 92 92 92 92 92 92 92 92 92 92 92 92 92 92 92 92 92 92 92 92 92 92 92 92 92 92 92 92 88 88 88 80 76 76 92 76 64 56 44 36 36 36 44 64 80 88 80 80 80 88 88 88 76 48 24 12 8 0 0 8 12 20
92 92 92 92 92 92 92 92 92 92 92 92 92 92 92 92 92 92 92 92 92 92 92 92 92 92 92 92 92 92 92 92 92 92 92 92 92 92 92 88 92 92 92 92 92 88 92 92 92 92 92 92 92 88 88 80 76 76 80 80 76 68 44 36 44 48 56 80 88 80 80 76 80 88 88 88 88 80 68 24 8 0 0 0 0 8
92 92 92 92 92 92 92 92 92 92 92 92 92 92 92 92 92 92 92 92 92 92 92 92 92 92 92 92 92 92 92 92 92 92 92 92 92 92 88 88 92 92 92 92 88 88 88 88 80 80 92 88 92 92 80 80 80 80 64 76 88 80 44 44 44 48 64 80 76 64 76 88 92 88 88 88 88 88 88 20 0 0 0 0 0 0
92 92 92 92 92 92 92 92 92 92 92 92 92 92 92 92 92 92 92 92 92 92 92 92 92 92 92 92 92 92 92 92 92 92 88 92 92 92 92 92 92 92 92 92 92 92 88 88 88 80 80 80 88 92 80 80 80 76 64 80 88 88 68 48 44 48 80 88 80 76 88 88 88 88 88 88 88 88 88 56 20 0 0 0 0 0
92 92 92 92 92 92 92 92 92 92 92 92 92 92 92 92 92 92 92 92 92 88 92 92 92 92 92 92 92 92 92 92 88 80 76 88 92 92 92 92 92 92 92 92 92 92 92 92 92 92 88 88 88 92 88 88 80 76 56 80 92 92 88 64 64 68 76 88 88 88 88 88 88 88 88 88 88 88 88 88 44 0 0 0 0 0
92 92 92 92 92 92 92 92 92 92 92 92 92 92 92 92 92 92 92 92 88 88 88 92 92 92 92 92 92 92 92 80 76 68 76 88 92 92 92 88 88 88 92 92 92 92 92 92 92 92 92 92 92 92 88 88 88 80 76 88 92 92 88 56 68 88 76 88 88 88 88 88 88 88 88 88 88 88 88 88 76 44 8 0 0 0
92 92 92 92 92 92 92 92 92 92 92 92 92 92 92 92 92 92 92 92 92 92 92 92 92 92 92 92 92 92 88 68 64 68 88 92 92 92 92 80 88 92 92 92 92 92 88 80 88 92 92 92 88 80 80 88 80 80 76 88 92 92 92 68 76 88 76 88 88 88 88 88 88 88 88 88 88 88 88 88 88 68 12 0 0 0
92 92 92 92 92 92 92 92 92 92 92 92 92 92 92 92 92 92 92 92 92 92 92 92 92 92 92 92 92 92 88 88 80 76 80 92 92 92 92 88 88 88 92 92 92 92 92 92 92 92 92 92 80 68 68 76 76 76 80 80 80 80 80 76 76 76 88 88 88 88 88 88 88 88 88 88 88 88 88 88 88 68 12 0 0 0
88 80 88 88 92 92 92 92 92 92 92 92 92 92 92 92 92 92 92 92 92 92 92 92 92 92 92 92 92 92 92 92 92 92 92 92 92 92 92 92 92 92 92 92 92 92 92 92 92 92 92 92 76 64 64 68 64 56 76 88 88 80 64 80 88 88 88 88 88 88 88 88 88 88 88 88 88 88 88 88 88 88 68 32 8 0
88 80 80 88 88 88 92 92 92 92 92 92 92 92 92 92 92 92 92 92 92 92 92 92 92 92 92 92 92 92 92 92 92 92 92 92 92 92 92 92 88 88 92 92 92 92 92 92 88 88 88 80 68 64 56 68 64 56 48 80 88 88 76 88 88 88 88 88 88 88 88 88 88 88 88 88 88 88 88 88 88 88 88 32 8 0
88 88 80 88 88 92 92 92 92 92 92 92 92 92 92 92 92 92 92 92 92 92 92 92 92 92 92 92 92 92 92 92 92 92 92 92 92 92 92 92 92 92 92 92 92 92 92 92 92 92 88 80 80 76 68 76 68 64 76 88 88 88 88 80 88 88 92 76 76 88 88 88 88 88 88 76 80 80 68 76 80 88 88 80 64 56
88 88 88 92 92 92 92 92 92 92 92 92 92 92 92 92 92 92 92 92 92 92 92 92 92 92 92 92 92 92 92 92 92 92 92 88 92 92 92 92 92 92 92 92 92 92 92 92 92 92 92 92 92 92 88 68 64 68 88 88 76 68 76 68 76 88 88 88 88 80 56 80 88 88 88 88 88 80 68 80 76 68 88 88 64 48
88 88 88 92 92 92 92 92 92 92 92 92 92 92 92 92 92 92 92 92 92 92 92 92 92 92 92 92 92 92 92 92 92 92 88 88 92 92 92 92 92 92 92 92 92 92 92 92 92 88 88 92 92 92 92 88 76 68 64 68 80 88 88 88 88 88 92 88 88 80 68 80 88 80 64 44 48 64 88 88 88 88 88 88 88 80
92 88 88 92 92 92 92 92 92 92 92 92 92 92 92 92 92 92 92 92 92 92 92 92 92 92 92 92 92 92 92 92 92 92 92 92 92 92 92 92 92 92 92 92 92 92 92 92 92 92 88 92 92 92 80 92 80 64 68 68 76 80 80 92 92 92 92 92 88 88 88 68 76 88 88 56 48 48 48 68 80 88 88 68 76 88
92 92 92 88 88 92 92 92 92 92 92 92 92 92 92 92 92 92 92 92 92 92 92 92 92 92 92 92 92 92 92 92 92 92 92 92 92 92 92 92 92 92 92 92 92 92 92 92 92 88 88 92 92 92 92 88 76 64 88 88 64 36 36 48 56 64 92 92 92 88 88 88 76 64 56 56 56 48 44 64 76 76 68 76 68 68
92 88 88 88 88 88 92 92 92 92 92 92 92 92 92 92 92 92 92 92 92 92 92 92 92 92 92 92 92 92 92 92 92 92 92 92 92 92 92 92 92 92 92 92 92 92 92 92 88 88 88 92 92 92 88 88 80 76 76 88 88 76 44 44 44 64 92 88 88 80 80 88 80 76 68 36 20 20 32 36 32 36 68 68 68 64
88 88 88 88 88 92 92 92 92 92 92 92 92 92 92 92 92 92 92 92 92 92 92 92 92 92 92 92 92 92 92 92 92 92 92 92 92 92 92 92 92 92 92 92 92 92 92 92 88 88 92 92 92 88 88 80 76 80 80 80 80 80 80 76 64 64 64 76 68 48 56 80 88 80 76 36 24 20 12 24 24 24 48 48 48 44
88 80 80 88 88 92 92 92 92 92 92 92 92 92 92 92 92 92 92 92 92 92 92 92 92 92 92 92 92 92 92 92 92 92 92 92 92 92 92 92 92 92 92 92 92 92 92 92 92 92 92 92 80 76 68 68 64 64 76 76 80 80 80 80 76 56 48 56 64 68 76 88 88 76 36 32 24 20 20 20 20 20 24 20 32 36
80 80 80 80 88 88 92 92 92 92 92 92 92 92 92 92 92 92 92 92 92 92 92 92 92 92 92 92 88 88 80 88 92 92 92 92 92 92 92 92 92 92 92 92 92 92 92 92 92 92 92 92 80 68 64 56 48 48 44 56 68 76 76 76 64 64 76 68 64 64 80 88 80 64 32 36 32 24 20 20 20 20 12 24 24 24
88 88 88 88 88 88 88 88 92 92 92 92 92 92 92 92 92 92 92 92 92 92 92 92 92 92 92 92 88 80 88 88 88 92 92 92 92 92 92 92 92 92 92 92 92 92 92 92 92 92 92 92 88 76 64 48 44 36 36 44 56 56 56 64 64 68 80 80 68 56 68 80 68 56 48 36 32 24 20 20 20 20 12 20 20 20
92 92 92 92 88 80 80 88 92 92 92 92 88 88 92 92 92 92 92 92 92 92 92 92 92 92 92 92 92 92 92 92 92 92 92 92 92 92 92 92 92 92 92 92 92 92 92 92 92 92 92 92 88 80 80 68 48 44 44 48 44 36 44 48 64 68 68 76 68 68 88 80 80 80 64 44 32 24 20 20 24 24 20 20 20 20
92 92 92 92 88 80 88 88 92 92 92 92 92 92 92 92 92 92 92 92 92 92 92 92 92 92 88 92 92 92 88 88 88 92 92 88 92 92 92 92 92 92 92 92 92 92 92 92 92 92 92 80 68 64 80 80 68 56 64 68 48 36 36 44 48 64 68 68 76 76 88 88 80 76 76 44 36 32 24 24 24 24 20 24 24 24